Fowler
DateTemperatureDew Point
09/02 - 05:00 PM79.9°53.7°
09/02 - 04:45 PM80.5°55.1°
09/02 - 04:30 PM80.9°54.8°
09/02 - 04:15 PM81.1°54.3°
09/02 - 04:00 PM81.3°55.0°
09/02 - 03:45 PM81.5°54.8°
09/02 - 03:30 PM81.4°54.4°
09/02 - 03:15 PM81.5°54.5°
09/02 - 03:00 PM81.5°54.2°
09/02 - 02:45 PM81.7°54.6°
09/02 - 02:30 PM81.8°55.6°
09/02 - 02:15 PM81.6°54.7°
09/02 - 02:00 PM81.6°55.3°
09/02 - 01:45 PM81.4°55.0°
09/02 - 01:30 PM80.4°55.0°
09/02 - 01:15 PM80.0°54.8°
09/02 - 01:00 PM79.4°54.1°
09/02 - 12:45 PM80.0°55.6°
09/02 - 12:30 PM79.2°55.4°
09/02 - 12:15 PM79.7°54.9°
09/02 - 12:00 PM79.0°55.9°
09/02 - 11:45 AM76.7°55.4°
09/02 - 11:30 AM75.5°55.1°
09/02 - 11:15 AM74.3°55.0°
09/02 - 11:00 AM72.3°54.7°
09/02 - 10:45 AM71.5°54.3°
09/02 - 10:30 AM70.7°54.1°
09/02 - 10:15 AM69.0°54.2°
09/02 - 10:00 AM68.0°54.1°
09/02 - 09:45 AM66.9°53.7°
09/02 - 09:30 AM65.8°53.7°
09/02 - 09:15 AM64.5°53.4°
09/02 - 09:00 AM63.5°53.2°
09/02 - 08:45 AM62.0°52.6°
09/02 - 08:30 AM60.4°51.9°
09/02 - 08:15 AM58.9°51.9°
09/02 - 08:00 AM56.8°51.9°
09/02 - 07:45 AM54.8°52.2°
09/02 - 07:30 AM53.9°51.5°
09/02 - 07:15 AM52.7°50.2°
09/02 - 07:00 AM51.6°48.9°
09/02 - 06:45 AM51.0°48.1°
09/02 - 06:30 AM50.8°47.5°
09/02 - 06:15 AM50.9°47.3°
09/02 - 06:00 AM51.1°47.3°
09/02 - 05:45 AM51.4°47.6°
09/02 - 05:30 AM52.0°47.9°
09/02 - 05:15 AM52.4°48.1°
09/02 - 05:00 AM53.0°48.2°
09/02 - 04:45 AM53.4°48.5°
09/02 - 04:30 AM53.7°48.6°
09/02 - 04:15 AM54.0°48.6°
09/02 - 04:00 AM54.4°48.4°
09/02 - 03:45 AM55.2°48.6°
09/02 - 03:30 AM56.2°49.0°
09/02 - 03:15 AM57.4°49.2°
09/02 - 03:00 AM58.5°49.2°
09/02 - 02:45 AM59.5°49.1°
09/02 - 02:30 AM60.1°49.1°
09/02 - 02:15 AM60.8°49.0°
09/02 - 02:00 AM61.5°48.9°
09/02 - 01:45 AM62.0°48.8°
09/02 - 01:30 AM62.5°48.8°
09/02 - 01:15 AM62.9°48.7°
09/02 - 01:00 AM63.3°48.7°
09/02 - 12:45 AM63.5°48.7°
09/02 - 12:30 AM63.7°48.8°
09/02 - 12:15 AM64.0°48.9°
09/02 - 12:00 AM64.4°49.0°
09/01 - 11:45 PM64.8°49.0°
09/01 - 11:30 PM65.1°49.3°
09/01 - 11:15 PM65.5°49.5°
09/01 - 11:00 PM65.7°49.7°
09/01 - 10:45 PM65.9°50.0°
09/01 - 10:30 PM66.3°49.9°
09/01 - 10:15 PM67.1°49.4°
09/01 - 10:00 PM68.0°49.1°
09/01 - 09:45 PM68.7°48.4°
09/01 - 09:30 PM69.4°48.0°
09/01 - 09:15 PM69.3°47.8°
09/01 - 09:00 PM67.8°48.4°
09/01 - 08:45 PM67.6°49.2°
09/01 - 08:30 PM68.6°50.3°
09/01 - 08:15 PM69.3°49.7°
09/01 - 08:00 PM69.6°49.7°
09/01 - 07:45 PM69.6°49.0°
09/01 - 07:30 PM67.4°49.4°
09/01 - 07:15 PM67.1°51.4°
09/01 - 07:00 PM68.2°54.7°
09/01 - 06:45 PM69.5°55.6°
09/01 - 06:30 PM71.0°56.6°
09/01 - 06:15 PM72.4°56.6°
09/01 - 06:00 PM73.7°58.1°
09/01 - 05:45 PM74.8°56.9°
09/01 - 05:30 PM76.2°59.0°
09/01 - 05:15 PM77.1°58.2°
09/01 - 05:00 PM77.9°55.9°
09/01 - 04:45 PM78.3°55.3°
09/01 - 04:30 PM78.7°55.0°
09/01 - 04:15 PM79.2°54.0°
09/01 - 04:00 PM79.5°54.9°
09/01 - 03:45 PM79.7°55.0°
09/01 - 03:30 PM80.3°55.2°
09/01 - 03:15 PM80.3°55.5°
09/01 - 03:00 PM80.1°55.1°
09/01 - 02:45 PM80.4°55.2°
09/01 - 02:30 PM80.4°55.4°
09/01 - 02:15 PM80.3°54.6°
09/01 - 02:00 PM80.2°54.4°
09/01 - 01:45 PM80.2°54.7°
09/01 - 01:30 PM79.6°55.3°
09/01 - 01:15 PM79.2°55.0°
09/01 - 01:00 PM79.2°54.9°
09/01 - 12:45 PM79.1°55.2°
09/01 - 12:30 PM78.8°54.0°
09/01 - 12:15 PM78.8°54.1°
09/01 - 12:00 PM77.9°54.5°
09/01 - 11:45 AM77.5°54.3°
09/01 - 11:30 AM76.0°54.4°
09/01 - 11:15 AM74.2°53.3°
09/01 - 11:00 AM72.7°53.0°
09/01 - 10:45 AM71.6°52.8°
09/01 - 10:30 AM70.6°52.3°
09/01 - 10:15 AM69.4°52.0°
09/01 - 10:00 AM68.7°52.2°
09/01 - 09:45 AM67.7°52.3°
09/01 - 09:30 AM66.7°51.8°
09/01 - 09:15 AM65.8°51.9°
09/01 - 09:00 AM64.9°51.3°
09/01 - 08:45 AM64.0°51.5°
09/01 - 08:30 AM63.0°51.3°
09/01 - 08:15 AM62.2°51.2°
09/01 - 08:00 AM61.3°50.8°
09/01 - 07:45 AM60.4°50.6°
09/01 - 07:30 AM59.3°50.3°
09/01 - 07:15 AM57.6°50.1°
09/01 - 07:00 AM55.1°50.8°
09/01 - 06:45 AM54.4°50.3°
09/01 - 06:30 AM54.5°49.9°
09/01 - 06:15 AM54.8°49.7°
09/01 - 06:00 AM55.4°49.8°
09/01 - 05:45 AM56.1°49.7°
09/01 - 05:30 AM56.9°50.0°
09/01 - 05:15 AM57.5°50.3°
09/01 - 05:00 AM58.0°50.5°
09/01 - 04:45 AM58.5°51.1°
09/01 - 04:30 AM58.7°50.9°
09/01 - 04:15 AM59.2°51.0°
09/01 - 04:00 AM59.5°51.1°
09/01 - 03:45 AM60.0°51.3°
09/01 - 03:30 AM60.5°51.2°
09/01 - 03:15 AM60.8°51.8°
09/01 - 03:00 AM61.3°51.5°
09/01 - 02:45 AM61.8°52.0°
09/01 - 02:30 AM62.3°52.1°
09/01 - 02:15 AM62.8°52.3°
09/01 - 02:00 AM63.2°52.7°
09/01 - 01:45 AM63.5°52.5°
09/01 - 01:30 AM63.9°53.2°
09/01 - 01:15 AM64.5°53.4°
09/01 - 01:00 AM64.7°53.4°
09/01 - 12:45 AM65.2°53.6°
09/01 - 12:30 AM65.8°53.5°
09/01 - 12:15 AM66.2°53.3°
09/01 - 12:00 AM66.7°53.2°
08/31 - 11:45 PM67.1°53.4°
08/31 - 11:30 PM67.8°53.4°
08/31 - 11:15 PM68.2°53.4°
08/31 - 11:00 PM68.9°53.6°
08/31 - 10:45 PM69.5°53.4°
08/31 - 10:30 PM70.5°53.2°
08/31 - 10:15 PM71.3°52.7°
08/31 - 10:00 PM72.3°52.1°
08/31 - 09:45 PM72.9°51.6°
08/31 - 09:30 PM72.8°51.3°
08/31 - 09:15 PM73.0°51.6°
08/31 - 09:00 PM74.2°52.4°
08/31 - 08:45 PM75.3°52.0°
08/31 - 08:30 PM76.6°52.9°
08/31 - 08:15 PM77.9°52.9°
08/31 - 08:00 PM77.5°52.5°
08/31 - 07:45 PM75.7°52.9°
08/31 - 07:30 PM72.8°55.0°
08/31 - 07:15 PM72.9°59.0°
08/31 - 07:00 PM74.3°60.8°
08/31 - 06:45 PM75.9°61.8°
08/31 - 06:30 PM77.7°63.0°
08/31 - 06:15 PM79.2°63.7°
08/31 - 06:00 PM80.5°64.6°
08/31 - 05:45 PM81.6°62.7°